Location: Austin
(30.3000°N, 97.7500°W)
Time: 12:07:31
(UTC-05:00)

Cosmos 1666 Rocket - Pass Details

Date: 03 April 2024
Orbit: 602 x 628 km, 82.5° (Epoch: 21 April)

Event Time Altitude Azimuth Distance (km) Brightness Sun altitude
Rises 06:35:21 0° 357° (N) 2,919 7.1 -9.7°
Reaches altitude 10° 06:37:37 10° 360° (N) 2,009 6.3 -9.2°
Maximum altitude 06:42:03 68° 84° (E) 678 4.0 -8.3°
Drops below altitude 10° 06:46:27 10° 167° (SSE) 1,992 6.2 -7.4°
Sets 06:48:41 0° 169° (S) 2,892 7.0 -6.9°
